This is the latest recevied weather packets stored in our database for station/object SP1BMW-13. If no packets are shown the sender has not sent any weather packets the latest 10 day(s).
| Time | Temp. | Humidity | Pressure | Rain* | Wind** | Luminosity | Snow |
|---|---|---|---|---|---|---|---|
| 1777180968 | 6.11° C | 74% | 1020.1 hPa | 0 mm | 1.34 m/s, 305° | 61 W/m² | - |
| 1777180908 | 6.11° C | 74% | 1020.3 hPa | 0 mm | 0.89 m/s, 151° | 59 W/m² | - |
| 1777180848 | 6.11° C | 74% | 1020.3 hPa | 0 mm | 0.45 m/s, 261° | 56 W/m² | - |
| 1777180788 | 6.11° C | 73% | 1020.2 hPa | 0 mm | 1.34 m/s, 285° | 54 W/m² | - |
| 1777180728 | 6.11° C | 74% | 1020.3 hPa | 0 mm | 1.79 m/s, 269° | 53 W/m² | - |
| 1777180671 | 6.11° C | 74% | 1020.1 hPa | 0 mm | 0.89 m/s, 281° | 52 W/m² | - |
| 1777180611 | 6.11° C | 74% | 1020.3 hPa | 0 mm | 0.89 m/s, 302° | 51 W/m² | - |
| 1777180548 | 6.11° C | 74% | 1020.1 hPa | 0 mm | 0.89 m/s, 258° | 50 W/m² | - |
| 1777180488 | 6.11° C | 75% | 1020.2 hPa | 0 mm | 0.89 m/s, 260° | 49 W/m² | - |
| 1777180431 | 6.11° C | 75% | 1020.1 hPa | 0 mm | 0.45 m/s, 274° | 48 W/m² | - |
| 1777180368 | 6.11° C | 74% | 1020.1 hPa | 0 mm | 1.79 m/s, 280° | 48 W/m² | - |
| 1777180308 | 6.11° C | 75% | 1020 hPa | 0 mm | 1.34 m/s, 285° | 47 W/m² | - |
| 1777180251 | 6.11° C | 75% | 1019.9 hPa | 0 mm | 0.89 m/s, 158° | 46 W/m² | - |
| 1777180188 | 6.11° C | 75% | 1019.8 hPa | 0 mm | 0.89 m/s, 259° | 46 W/m² | - |
| 1777180131 | 6.11° C | 75% | 1020 hPa | 0 mm | 1.79 m/s, 278° | 45 W/m² | - |
| 1777180068 | 5.56° C | 76% | 1019.8 hPa | 0 mm | 0.89 m/s, 292° | 44 W/m² | - |
| 1777180008 | 5.56° C | 76% | 1019.9 hPa | 0 mm | 0.45 m/s, 247° | 43 W/m² | - |
| 1777179948 | 5.56° C | 76% | 1019.7 hPa | 0 mm | 0.89 m/s, 247° | 43 W/m² | - |
| 1777179890 | 5.56° C | 75% | 1019.9 hPa | 0 mm | 1.79 m/s, 244° | 42 W/m² | - |
| 1777179828 | 5.56° C | 76% | 1019.7 hPa | 0 mm | 1.79 m/s, 245° | 42 W/m² | - |
| 1777179768 | 5.56° C | 76% | 1019.7 hPa | 0 mm | 1.34 m/s, 306° | 41 W/m² | - |
| 1777179708 | 5.56° C | 76% | 1019.6 hPa | 0 mm | 1.34 m/s, 292° | 41 W/m² | - |
| 1777179648 | 5.56° C | 76% | 1019.7 hPa | 0 mm | 1.79 m/s, 246° | 40 W/m² | - |
| 1777179588 | 5.56° C | 76% | 1019.8 hPa | 0 mm | 1.79 m/s, 259° | 40 W/m² | - |
| 1777179528 | 5.56° C | 76% | 1019.8 hPa | 0 mm | 1.79 m/s, 320° | 39 W/m² | - |
* Rain latest hour (hover to see other rain measurements)
** Current wind speed in m/s (hover to see current wind gust speed)